,,Stat1,,Stat2,,Stat3,,Stat4,,Wind1,,Wind1,
time,status,PR1M_SUM,status,RH1M_AVG,status,SR1M_AVG,status,TA1M_AVG,status,W1dAve1m,status,W1sAve1m,
1999-12-04, 00:01:00,VALID,0,VALID,100,VALID,-0.0679233,VALID,19.0715,VALID,87,VALID,1.45418,
1999-12-04, 00:02:01,VALID,0,VALID,100,VALID,-0.0339617,VALID,19.0648,VALID,92,VALID,1.15966,
1999-12-04, 00:03:00,VALID,0,VALID,99.999,VALID,-0.0849042,VALID,19.0782,VALID,78,VALID,0.630208,
1999-12-04, 00:04:00,VALID,0,VALID,100,VALID,-0.0849042,VALID,19.0745,VALID,92,VALID,0.757813,
1999-12-04, 00:05:00,VALID,0,VALID,99.999,VALID,-0.101885,VALID,19.0782,VALID,74,VALID,1.21114,
1999-12-04, 00:06:00,VALID,0,VALID,99.971,VALID,-0.0849042,VALID,19.0521,VALID,69,VALID,1.23578,
1999-12-04, 00:07:00,VALID,0,VALID,99.9685,VALID,-0.0849042,VALID,19.0556,VALID,89,VALID,2.02154,
1999-12-04, 00:08:00,VALID,0,VALID,99.9608,VALID,-0.101885,VALID,19.0551,VALID,62,VALID,1.36655,
1999-12-04, 00:09:00,VALID,0,VALID,99.929,VALID,-0.101885,VALID,19.0329,VALID,42,VALID,0.768304,
1999-12-04, 00:10:00,VALID,0,VALID,99.9163,VALID,-0.0849042,VALID,19.0327,VALID,61,VALID,0.869555,
1999-12-04, 00:11:00,VALID,0,VALID,99.8998,VALID,-0.0679233,VALID,19.0228,VALID,98,VALID,1.18594,
1999-12-04, 00:12:00,VALID,0,VALID,99.9112,VALID,-0.0679233,VALID,19.0454,VALID,82,VALID,0.740234,
1999-12-04, 00:13:00,VALID,0,VALID,99.8744,VALID,-0.0339617,VALID,19.026,VALID,69,VALID,1.11061,
1999-12-04, 00:14:00,VALID,0,VALID,99.8464,VALID,-0.0849042,VALID,19.0232,VALID,82,VALID,1.4259,
1999-12-04, 00:15:00,VALID,0,VALID,99.8362,VALID,-0.0849042,VALID,19.023,VALID,72,VALID,0.532452,
1999-12-04, 00:16:00,VALID,0,VALID,99.8019,VALID,-0.101885,VALID,19.0267,VALID,83,VALID,0.719383,
1999-12-04, 00:17:00,VALID,0,VALID,99.8057,VALID,-0.0849042,VALID,19.0262,VALID,74,VALID,0.821957,
1999-12-04, 00:18:00,VALID,0,VALID,99.7904,VALID,-0.101885,VALID,19.0096,VALID,91,VALID,1.15625,
1999-12-04, 00:19:00,VALID,0,VALID,99.7574,VALID,-0.0509425,VALID,18.9974,VALID,84,VALID,1.55325,
1999-12-04, 00:20:00,VALID,0,VALID,99.7129,VALID,-0.0849042,VALID,19.0038,VALID,84,VALID,1.25873,
1999-12-04, 00:21:00,VALID,0,VALID,99.6976,VALID,-0.0509425,VALID,19.0165,VALID,78,VALID,1.00217,
1999-12-04, 00:22:00,VALID,0,VALID,99.6468,VALID,-0.0679233,VALID,18.9971,VALID,78,VALID,0.872196,
1999-12-04, 00:23:01,VALID,0,VALID,99.6455,VALID,-0.0849042,VALID,19.0135,VALID,86,VALID,1.1889,
1999-12-04, 00:24:00,VALID,0,VALID,99.6709,VALID,-0.0849042,VALID,19.0232,VALID,92,VALID,1.18681,
1999-12-04, 00:25:00,VALID,0,VALID,99.6556,VALID,-0.0679233,VALID,19.02,VALID,80,VALID,0.95662,
1999-12-04, 00:26:00,VALID,0,VALID,99.6556,VALID,-0.0849042,VALID,19.0105,VALID,59,VALID,0.727564,
1999-12-04, 00:27:00,VALID,0,VALID,99.62,VALID,0,VALID,18.9867,VALID,75,VALID,1.0076,
1999-12-04, 00:28:00,VALID,0,VALID,99.5959,VALID,0,VALID,18.9867,VALID,28,VALID,0.421664,
1999-12-04, 00:29:00,VALID,0,VALID,99.5857,VALID,0,VALID,18.9765,VALID,84,VALID,0.626562,
1999-12-04, 00:30:00,VALID,0,VALID,99.6022,VALID,0.0339617,VALID,18.9763,VALID,80,VALID,0.650095,
1999-12-04, 00:31:00,VALID,0,VALID,99.5883,VALID,0,VALID,18.9671,VALID,43,VALID,0.541518,
1999-12-04, 00:32:00,VALID,0,VALID,99.4725,VALID,0.0679233,VALID,18.9378,VALID,71,VALID,1.18403,
1999-12-04, 00:33:00,VALID,0,VALID,99.4433,VALID,0.0169808,VALID,18.9239,VALID,18,VALID,0.430715,
1999-12-04, 00:34:00,VALID,0,VALID,99.4102,VALID,0.0169808,VALID,18.9445,VALID,43,VALID,0.606297,
1999-12-04, 00:35:00,VALID,0,VALID,99.2017,VALID,0.0339617,VALID,18.899,VALID,69,VALID,0.946915,
1999-12-04, 00:36:00,VALID,0,VALID,99.0529,VALID,0.0169808,VALID,18.9375,VALID,72,VALID,0.886613,
1999-12-04, 00:37:00,VALID,0,VALID,98.8889,VALID,0.0339617,VALID,18.9539,VALID,76,VALID,1.08779,
1999-12-04, 00:38:00,VALID,0,VALID,98.7744,VALID,0.0339617,VALID,18.9539,VALID,78,VALID,0.713759,
1999-12-04, 00:39:00,VALID,0,VALID,98.6676,VALID,0,VALID,18.9311,VALID,80,VALID,0.183594,
1999-12-04, 00:40:00,VALID,0,VALID,98.6142,VALID,0.0339617,VALID,18.9375,VALID,80,VALID,0.013557,
1999-12-04, 00:41:00,VALID,0,VALID,98.5608,VALID,0.0169808,VALID,18.9184,VALID,92,VALID,0.522786,
1999-12-04, 00:42:00,VALID,0,VALID,98.5659,VALID,-0.0339617,VALID,18.9225,VALID,95,VALID,0.883814,
1999-12-04, 00:43:00,VALID,0,VALID,98.4985,VALID,-0.0679233,VALID,18.9101,VALID,79,VALID,0.896234,
1999-12-04, 00:44:00,VALID,0,VALID,98.4603,VALID,-0.101885,VALID,18.9103,VALID,61,VALID,0.534697,
1999-12-04, 00:45:00,VALID,0,VALID,98.3205,VALID,-0.0509425,VALID,18.917,VALID,103,VALID,0.670847,
1999-12-04, 00:46:00,VALID,0,VALID,98.2938,VALID,-0.0849042,VALID,18.9233,VALID,331,VALID,0.619992,
1999-12-04, 00:47:00,VALID,0,VALID,98.3993,VALID,-0.0849042,VALID,18.9389,VALID,292,VALID,0.417019,
1999-12-04, 00:48:00,VALID,0,VALID,98.5201,VALID,-0.0849042,VALID,18.9429,VALID,297,VALID,0.00358953,
1999-12-04, 00:49:00,VALID,0,VALID,98.6028,VALID,-0.0509425,VALID,18.9166,VALID,292,VALID,0.0676339,
1999-12-04, 00:50:00,VALID,0,VALID,98.6663,VALID,-0.0339617,VALID,18.8969,VALID,265,VALID,0.1991,
1999-12-04, 00:51:00,VALID,0,VALID,98.6765,VALID,0.0509425,VALID,18.886,VALID,257,VALID,0.420536,
1999-12-04, 00:52:00,VALID,0,VALID,98.7261,VALID,0.0169808,VALID,18.8729,VALID,266,VALID,0.138889,
1999-12-04, 00:53:00,VALID,0,VALID,98.824,VALID,0,VALID,18.8828,VALID,273,VALID,0.193462,
1999-12-04, 00:54:00,VALID,0,VALID,98.8622,VALID,0.0509425,VALID,18.8666,VALID,235,VALID,0.215436,
1999-12-04, 00:55:01,VALID,0,VALID,98.8889,VALID,0.0509425,VALID,18.8639,VALID,248,VALID,0.133013,
1999-12-04, 00:56:00,VALID,0,VALID,98.9575,VALID,0,VALID,18.8502,VALID,289,VALID,0.3731,
1999-12-04, 00:57:00,VALID,0,VALID,98.9779,VALID,0.0509425,VALID,18.8341,VALID,298,VALID,0.14741,
1999-12-04, 00:58:00,VALID,0,VALID,99.0351,VALID,0.0169808,VALID,18.8348,VALID,170,VALID,0.224826,
1999-12-04, 00:59:00,VALID,0,VALID,99.0987,VALID,0.0169808,VALID,18.8343,VALID,131,VALID,0.337582,
1999-12-04, 01:00:00,VALID,0,VALID,99.1356,VALID,0.0509425,VALID,18.8313,VALID,136,VALID,0.859835,
1999-12-04, 01:01:00,VALID,0,VALID,99.1877,VALID,0.0509425,VALID,18.8376,VALID,128,VALID,0.801215,
1999-12-04, 01:02:00,VALID,0,VALID,99.2068,VALID,0.0509425,VALID,18.841,VALID,136,VALID,0.324319,
1999-12-04, 01:03:00,VALID,0,VALID,99.2246,VALID,0.0509425,VALID,18.8276,VALID,225,VALID,0,
1999-12-04, 01:04:00,VALID,0,VALID,99.2131,VALID,0.0339617,VALID,18.8249,VALID,284,VALID,0,
1999-12-04, 01:05:00,VALID,0,VALID,99.2017,VALID,0.0339617,VALID,18.8184,VALID,304,VALID,0,
1999-12-04, 01:06:00,VALID,0,VALID,99.1915,VALID,0.0339617,VALID,18.799,VALID,302,VALID,0,
1999-12-04, 01:07:00,VALID,0,VALID,99.2017,VALID,0.0169808,VALID,18.7794,VALID,301,VALID,0,
1999-12-04, 01:08:00,VALID,0,VALID,99.2182,VALID,0.0169808,VALID,18.7757,VALID,299,VALID,0,
1999-12-04, 01:09:00,VALID,0,VALID,99.264,VALID,0,VALID,18.7826,VALID,302,VALID,0,
1999-12-04, 01:10:00,VALID,0,VALID,99.2856,VALID,0.0169808,VALID,18.7828,VALID,303,VALID,0,
1999-12-04, 01:11:00,VALID,0,VALID,99.3034,VALID,0.0339617,VALID,18.7828,VALID,49,VALID,0,
1999-12-04, 01:12:00,VALID,0,VALID,99.2843,VALID,-0.0509425,VALID,18.7713,VALID,81,VALID,0.613064,
1999-12-04, 01:13:00,VALID,0,VALID,99.2958,VALID,-0.0679233,VALID,18.7582,VALID,86,VALID,0.396998,
1999-12-04, 01:14:00,VALID,0,VALID,99.3174,VALID,-0.0849042,VALID,18.7656,VALID,86,VALID,0.0094697,
1999-12-04, 01:15:00,VALID,0,VALID,99.3327,VALID,-0.101885,VALID,18.7459,VALID,86,VALID,0.0530849,
1999-12-04, 01:16:00,VALID,0,VALID,99.367,VALID,-0.101885,VALID,18.7487,VALID,86,VALID,0.0287162,
1999-12-04, 01:17:00,VALID,0,VALID,99.3962,VALID,-0.0849042,VALID,18.7422,VALID,86,VALID,0.122122,
1999-12-04, 01:18:01,VALID,0,VALID,99.4649,VALID,-0.101885,VALID,18.7487,VALID,104,VALID,0.412326,
1999-12-04, 01:19:00,VALID,0,VALID,99.4827,VALID,-0.101885,VALID,18.7554,VALID,90,VALID,0.664268,
1999-12-04, 01:20:00,VALID,0,VALID,99.4878,VALID,-0.118866,VALID,18.7455,VALID,40,VALID,0.484835,
1999-12-04, 01:21:00,VALID,0,VALID,99.4649,VALID,-0.101885,VALID,18.7295,VALID,50,VALID,0.132595,
1999-12-04, 01:22:00,VALID,0,VALID,99.4814,VALID,-0.0849042,VALID,18.7397,VALID,91,VALID,0,
1999-12-04, 01:23:00,VALID,0,VALID,99.4865,VALID,-0.0849042,VALID,18.7288,VALID,99,VALID,0,
1999-12-04, 01:24:00,VALID,0,VALID,99.4687,VALID,-0.101885,VALID,18.7233,VALID,101,VALID,0.0011489,
1999-12-04, 01:25:00,VALID,0,VALID,99.4814,VALID,-0.0679233,VALID,18.7099,VALID,81,VALID,0,
1999-12-04, 01:26:00,VALID,0,VALID,99.5094,VALID,-0.0679233,VALID,18.7198,VALID,58,VALID,0,
1999-12-04, 01:27:00,VALID,0,VALID,99.5209,VALID,-0.0849042,VALID,18.7064,VALID,58,VALID,0,
1999-12-04, 01:28:00,VALID,0,VALID,99.5272,VALID,-0.0849042,VALID,18.7002,VALID,58,VALID,0,
1999-12-04, 01:29:01,VALID,0,VALID,99.5399,VALID,-0.0509425,VALID,18.7039,VALID,57,VALID,0,
1999-12-04, 01:30:00,VALID,0,VALID,99.5107,VALID,-0.101885,VALID,18.694,VALID,158,VALID,0.0201231,
1999-12-04, 01:31:00,VALID,0,VALID,99.4992,VALID,-0.0849042,VALID,18.7042,VALID,111,VALID,0,
1999-12-04, 01:32:00,VALID,0,VALID,99.4675,VALID,-0.0849042,VALID,18.6838,VALID,146,VALID,0,
1999-12-04, 01:33:00,VALID,0,VALID,99.4573,VALID,-0.0509425,VALID,18.69,VALID,163,VALID,0,
1999-12-04, 01:34:00,VALID,0,VALID,99.4458,VALID,-0.0849042,VALID,18.6967,VALID,188,VALID,0,
1999-12-04, 01:35:00,VALID,0,VALID,99.456,VALID,-0.0679233,VALID,18.7037,VALID,241,VALID,0,
1999-12-04, 01:36:00,VALID,0,VALID,99.428,VALID,-0.101885,VALID,18.6871,VALID,243,VALID,0,
1999-12-04, 01:37:00,VALID,0,VALID,99.4446,VALID,-0.0849042,VALID,18.6975,VALID,237,VALID,0,
1999-12-04, 01:38:00,VALID,0,VALID,99.4471,VALID,-0.101885,VALID,18.7139,VALID,131,VALID,0,
1999-12-04, 01:39:00,VALID,0,VALID,99.4382,VALID,-0.101885,VALID,18.7067,VALID,127,VALID,0,
1999-12-04, 01:40:00,VALID,0,VALID,99.3683,VALID,-0.101885,VALID,18.688,VALID,59,VALID,0,
1999-12-04, 01:41:00,VALID,0,VALID,99.3187,VALID,-0.101885,VALID,18.688,VALID,30,VALID,0,
1999-12-04, 01:42:00,VALID,0,VALID,99.2843,VALID,-0.0679233,VALID,18.6804,VALID,30,VALID,0,
1999-12-04, 01:43:00,VALID,0,VALID,99.2615,VALID,-0.0509425,VALID,18.6901,VALID,168,VALID,0,
1999-12-04, 01:44:00,VALID,0,VALID,99.2258,VALID,-0.0339617,VALID,18.6871,VALID,183,VALID,0,
1999-12-04, 01:45:00,VALID,0,VALID,99.2004,VALID,-0.0849042,VALID,18.7164,VALID,87,VALID,0,
1999-12-04, 01:46:00,VALID,0,VALID,99.1496,VALID,-0.0849042,VALID,18.7131,VALID,80,VALID,0,
1999-12-04, 01:47:00,VALID,0,VALID,99.0974,VALID,-0.0679233,VALID,18.7032,VALID,80,VALID,0,
1999-12-04, 01:48:00,VALID,0,VALID,99.0949,VALID,-0.0679233,VALID,18.7194,VALID,80,VALID,0,
1999-12-04, 01:49:00,VALID,0,VALID,99.1101,VALID,-0.0169808,VALID,18.7094,VALID,89,VALID,0,
1999-12-04, 01:50:01,VALID,0,VALID,99.0911,VALID,-0.0339617,VALID,18.7159,VALID,91,VALID,0.732244,
1999-12-04, 01:51:01,VALID,0,VALID,99.0656,VALID,-0.0339617,VALID,18.7263,VALID,119,VALID,0.593973,
1999-12-04, 01:52:00,VALID,0,VALID,99.0237,VALID,-0.0169808,VALID,18.7159,VALID,40,VALID,0.39171,
1999-12-04, 01:53:00,VALID,0,VALID,98.9639,VALID,-0.0169808,VALID,18.7191,VALID,38,VALID,0.0193257,
1999-12-04, 01:54:00,VALID,0,VALID,98.9385,VALID,0,VALID,18.7097,VALID,38,VALID,0,
1999-12-04, 01:55:00,VALID,0,VALID,98.9728,VALID,-0.0509425,VALID,18.7032,VALID,124,VALID,0.142228,
1999-12-04, 01:56:00,VALID,0,VALID,99.0084,VALID,-0.0509425,VALID,18.7094,VALID,158,VALID,0.187711,
1999-12-04, 01:57:00,VALID,0,VALID,99.0008,VALID,0,VALID,18.7291,VALID,148,VALID,0.00822368,
1999-12-04, 01:58:00,VALID,0,VALID,99.0097,VALID,-0.0509425,VALID,18.7325,VALID,142,VALID,0.300347,
1999-12-04, 01:59:00,VALID,0,VALID,99.0033,VALID,-0.0679233,VALID,18.7159,VALID,90,VALID,0.677426,
1999-12-04, 02:00:00,VALID,0,VALID,98.9982,VALID,-0.0169808,VALID,18.7127,VALID,62,VALID,0.535386,
1999-12-04, 02:01:01,VALID,0,VALID,98.9423,VALID,-0.0509425,VALID,18.7228,VALID,75,VALID,0.833984,
1999-12-04, 02:02:01,VALID,0,VALID,98.9334,VALID,-0.0509425,VALID,18.7485,VALID,87,VALID,0.894231,
1999-12-04, 02:03:00,VALID,0,VALID,98.8278,VALID,-0.0339617,VALID,18.7616,VALID,83,VALID,0.929487,
1999-12-04, 02:04:00,VALID,0,VALID,98.7274,VALID,-0.0339617,VALID,18.784,VALID,83,VALID,0.26057,
1999-12-04, 02:05:00,VALID,0,VALID,98.6587,VALID,-0.0679233,VALID,18.787,VALID,82,VALID,0.0713405,
1999-12-04, 02:06:00,VALID,0,VALID,98.6193,VALID,0,VALID,18.7808,VALID,81,VALID,0.0120192,
1999-12-04, 02:07:00,VALID,0,VALID,98.5672,VALID,-0.0169808,VALID,18.7868,VALID,81,VALID,0.172931,
1999-12-04, 02:08:00,VALID,0,VALID,98.6295,VALID,-0.0339617,VALID,18.8037,VALID,87,VALID,0.0399071,
1999-12-04, 02:09:00,VALID,0,VALID,98.6791,VALID,-0.0339617,VALID,18.7965,VALID,87,VALID,0,
1999-12-04, 02:10:00,VALID,0,VALID,98.7108,VALID,-0.0339617,VALID,18.7967,VALID,87,VALID,0,
1999-12-04, 02:11:00,VALID,0,VALID,98.7375,VALID,0,VALID,18.8007,VALID,87,VALID,0.0962054,
1999-12-04, 02:12:00,VALID,0,VALID,98.7821,VALID,-0.0169808,VALID,18.7778,VALID,87,VALID,0,
1999-12-04, 02:13:01,VALID,0,VALID,98.8189,VALID,-0.0849042,VALID,18.7649,VALID,87,VALID,0,
1999-12-04, 02:14:00,VALID,0,VALID,98.8507,VALID,-0.0509425,VALID,18.7582,VALID,87,VALID,0,
1999-12-04, 02:15:00,VALID,0,VALID,98.9016,VALID,-0.0509425,VALID,18.7519,VALID,87,VALID,0,
1999-12-04, 02:16:00,VALID,0,VALID,98.9474,VALID,-0.0339617,VALID,18.742,VALID,81,VALID,0,
1999-12-04, 02:17:00,VALID,0,VALID,99.0097,VALID,-0.0679233,VALID,18.742,VALID,83,VALID,0,
1999-12-04, 02:18:00,VALID,0,VALID,99.0504,VALID,-0.0679233,VALID,18.7351,VALID,51,VALID,0,
1999-12-04, 02:19:00,VALID,0,VALID,99.0745,VALID,-0.0679233,VALID,18.7323,VALID,51,VALID,0,
1999-12-04, 02:20:00,VALID,0,VALID,99.1025,VALID,-0.0339617,VALID,18.7194,VALID,51,VALID,0,
1999-12-04, 02:21:00,VALID,0,VALID,99.1394,VALID,-0.0339617,VALID,18.7256,VALID,51,VALID,0,
1999-12-04, 02:22:00,VALID,0,VALID,99.1763,VALID,-0.0509425,VALID,18.7455,VALID,87,VALID,0,
1999-12-04, 02:23:01,VALID,0,VALID,99.1864,VALID,-0.0339617,VALID,18.7554,VALID,83,VALID,0,
1999-12-04, 02:24:01,VALID,0,VALID,99.1724,VALID,-0.0849042,VALID,18.7519,VALID,54,VALID,0,
1999-12-04, 02:25:00,VALID,0,VALID,99.1457,VALID,-0.0509425,VALID,18.739,VALID,53,VALID,0,
1999-12-04, 02:26:00,VALID,0,VALID,99.1457,VALID,-0.0509425,VALID,18.7323,VALID,53,VALID,0,
1999-12-04, 02:27:00,VALID,0,VALID,99.1597,VALID,-0.0169808,VALID,18.7378,VALID,340,VALID,0,
1999-12-04, 02:28:00,VALID,0,VALID,99.1763,VALID,0.0509425,VALID,18.7408,VALID,226,VALID,0,
1999-12-04, 02:29:00,VALID,0,VALID,99.2093,VALID,0.0509425,VALID,18.7565,VALID,135,VALID,0,
1999-12-04, 02:30:00,VALID,0,VALID,99.2182,VALID,0.0169808,VALID,18.7535,VALID,92,VALID,0,
1999-12-04, 02:31:00,VALID,0,VALID,99.2131,VALID,0.0679233,VALID,18.7436,VALID,84,VALID,0,
1999-12-04, 02:32:00,VALID,0,VALID,99.208,VALID,0.0679233,VALID,18.7376,VALID,84,VALID,0,
1999-12-04, 02:33:00,VALID,0,VALID,99.2297,VALID,0.0849042,VALID,18.7247,VALID,108,VALID,0.591694,
1999-12-04, 02:34:00,VALID,0,VALID,99.2475,VALID,0.0679233,VALID,18.7147,VALID,101,VALID,0.783617,
1999-12-04, 02:35:01,VALID,0,VALID,99.2754,VALID,0.0679233,VALID,18.6983,VALID,91,VALID,0.643229,
1999-12-04, 02:36:00,VALID,0,VALID,99.3212,VALID,0.0509425,VALID,18.6921,VALID,104,VALID,0.741976,
1999-12-04, 02:37:00,VALID,0,VALID,99.3912,VALID,0.0339617,VALID,18.712,VALID,114,VALID,0.631168,
1999-12-04, 02:38:00,VALID,0,VALID,99.4357,VALID,0,VALID,18.7053,VALID,100,VALID,0.443359,
1999-12-04, 02:39:00,VALID,0,VALID,99.4827,VALID,0.0509425,VALID,18.7113,VALID,100,VALID,0.577097,
1999-12-04, 02:40:00,VALID,0,VALID,99.5221,VALID,0.0679233,VALID,18.715,VALID,107,VALID,0.381473,
1999-12-04, 02:41:00,VALID,0,VALID,99.5196,VALID,0.0679233,VALID,18.7115,VALID,107,VALID,0.411675,
1999-12-04, 02:42:00,VALID,0,VALID,99.5361,VALID,0.0169808,VALID,18.6923,VALID,107,VALID,0.370793,
1999-12-04, 02:43:00,VALID,0,VALID,99.545,VALID,-0.0169808,VALID,18.6963,VALID,102,VALID,0.663862,
1999-12-04, 02:44:00,VALID,0,VALID,99.5666,VALID,0,VALID,18.7027,VALID,97,VALID,0.846737,
1999-12-04, 02:45:00,VALID,0,VALID,99.5921,VALID,0,VALID,18.7124,VALID,101,VALID,0.409539,
1999-12-04, 02:46:01,VALID,0,VALID,99.6086,VALID,0,VALID,18.7055,VALID,98,VALID,0.507412,
1999-12-04, 02:47:00,VALID,0,VALID,99.6048,VALID,0,VALID,18.703,VALID,96,VALID,0.597762,
1999-12-04, 02:48:00,VALID,0,VALID,99.5946,VALID,0,VALID,18.6926,VALID,96,VALID,0.42103,
1999-12-04, 02:49:00,VALID,0,VALID,99.615,VALID,0,VALID,18.6928,VALID,97,VALID,0.983705,
1999-12-04, 02:50:00,VALID,0,VALID,99.6391,VALID,0,VALID,18.7159,VALID,94,VALID,1.05374,
1999-12-04, 02:51:00,VALID,0,VALID,99.6378,VALID,0,VALID,18.7122,VALID,96,VALID,0.958929,
1999-12-04, 02:52:00,VALID,0,VALID,99.6493,VALID,-0.0169808,VALID,18.712,VALID,96,VALID,1.05035,
1999-12-04, 02:53:00,VALID,0,VALID,99.6506,VALID,0,VALID,18.7023,VALID,97,VALID,0.932771,
1999-12-04, 02:54:00,VALID,0,VALID,99.676,VALID,0,VALID,18.715,VALID,95,VALID,0.742898,
1999-12-04, 02:55:00,VALID,0,VALID,99.6735,VALID,0.0169808,VALID,18.7117,VALID,97,VALID,0.273237,
1999-12-04, 02:56:00,VALID,0,VALID,99.6735,VALID,0,VALID,18.7154,VALID,97,VALID,0.0295608,
1999-12-04, 02:57:01,VALID,0,VALID,99.6951,VALID,-0.0169808,VALID,18.7221,VALID,100,VALID,0.199424,
1999-12-04, 02:58:00,VALID,0,VALID,99.718,VALID,0,VALID,18.7445,VALID,102,VALID,0.759549,
1999-12-04, 02:59:00,VALID,0,VALID,99.7014,VALID,0,VALID,18.7316,VALID,91,VALID,0.983141,
1999-12-04, 03:00:00,VALID,0,VALID,99.7002,VALID,-0.0169808,VALID,18.7318,VALID,93,VALID,0.737132,
1999-12-04, 03:01:00,VALID,0,VALID,99.6938,VALID,0,VALID,18.7318,VALID,83,VALID,0.595486,
1999-12-04, 03:02:00,VALID,0,VALID,99.7091,VALID,-0.0169808,VALID,18.7378,VALID,71,VALID,0.74379,
1999-12-04, 03:03:00,VALID,0,VALID,99.6887,VALID,0,VALID,18.7443,VALID,92,VALID,0.322917,
1999-12-04, 03:04:00,VALID,0,VALID,99.6862,VALID,0,VALID,18.7547,VALID,68,VALID,0,
1999-12-04, 03:05:00,VALID,0,VALID,99.6671,VALID,-0.0169808,VALID,18.7609,VALID,98,VALID,0,
1999-12-04, 03:06:00,VALID,0,VALID,99.6302,VALID,-0.0169808,VALID,18.7545,VALID,87,VALID,0.359976,
1999-12-04, 03:07:00,VALID,0,VALID,99.6022,VALID,0,VALID,18.7612,VALID,88,VALID,0.811444,
1999-12-04, 03:08:01,VALID,0,VALID,99.5883,VALID,-0.0339617,VALID,18.7609,VALID,89,VALID,1.03273,
1999-12-04, 03:09:00,VALID,0,VALID,99.559,VALID,-0.0339617,VALID,18.7669,VALID,89,VALID,0.8375,
1999-12-04, 03:10:00,VALID,0,VALID,99.5081,VALID,-0.0169808,VALID,18.7711,VALID,82,VALID,0.84446,
1999-12-04, 03:11:00,VALID,0,VALID,99.4814,VALID,0,VALID,18.7743,VALID,80,VALID,1.04062,
1999-12-04, 03:12:00,VALID,0,VALID,99.4636,VALID,0,VALID,18.7709,VALID,87,VALID,0.545573,
1999-12-04, 03:13:00,VALID,0,VALID,99.4331,VALID,0,VALID,18.7739,VALID,93,VALID,0.562089,
1999-12-04, 03:14:00,VALID,0,VALID,99.4064,VALID,-0.0169808,VALID,18.7612,VALID,97,VALID,0.371449,
1999-12-04, 03:15:00,VALID,0,VALID,99.4013,VALID,0,VALID,18.7612,VALID,69,VALID,0.604367,
1999-12-04, 03:16:00,VALID,0,VALID,99.4331,VALID,-0.0339617,VALID,18.7806,VALID,73,VALID,0.961782,
1999-12-04, 03:17:00,VALID,0,VALID,99.3988,VALID,0,VALID,18.7771,VALID,85,VALID,0.601151,
1999-12-04, 03:18:01,VALID,0,VALID,99.3632,VALID,0,VALID,18.7771,VALID,74,VALID,0.503689,
1999-12-04, 03:19:00,VALID,0,VALID,99.3556,VALID,0,VALID,18.7672,VALID,89,VALID,0.575247,
1999-12-04, 03:20:00,VALID,0,VALID,99.3556,VALID,0,VALID,18.7736,VALID,94,VALID,0.962316,
1999-12-04, 03:21:00,VALID,0,VALID,99.3568,VALID,0,VALID,18.7639,VALID,96,VALID,0.340712,
1999-12-04, 03:22:00,VALID,0,VALID,99.3594,VALID,-0.0169808,VALID,18.7681,VALID,86,VALID,0.130609,
1999-12-04, 03:23:00,VALID,0,VALID,99.395,VALID,0,VALID,18.7607,VALID,87,VALID,0.144231,
1999-12-04, 03:24:00,VALID,0,VALID,99.381,VALID,0,VALID,18.7443,VALID,87,VALID,0,
1999-12-04, 03:25:00,VALID,0,VALID,99.3924,VALID,-0.0169808,VALID,18.748,VALID,87,VALID,0,
1999-12-04, 03:26:00,VALID,0,VALID,99.4001,VALID,-0.0169808,VALID,18.7251,VALID,87,VALID,0.0406651,
1999-12-04, 03:27:00,VALID,0,VALID,99.4115,VALID,-0.0169808,VALID,18.7221,VALID,87,VALID,0.113598,
1999-12-04, 03:28:00,VALID,0,VALID,99.4242,VALID,-0.0169808,VALID,18.7094,VALID,87,VALID,0,
1999-12-04, 03:29:00,VALID,0,VALID,99.4446,VALID,-0.0679233,VALID,18.7159,VALID,87,VALID,0.000446429,
1999-12-04, 03:30:00,VALID,0,VALID,99.484,VALID,-0.0169808,VALID,18.703,VALID,87,VALID,0.420928,
1999-12-04, 03:31:00,VALID,0,VALID,99.512,VALID,-0.0509425,VALID,18.6901,VALID,92,VALID,0.539063,
1999-12-04, 03:32:00,VALID,0,VALID,99.5412,VALID,-0.0169808,VALID,18.6871,VALID,91,VALID,0.42947,
1999-12-04, 03:33:00,VALID,0,VALID,99.5806,VALID,-0.0169808,VALID,18.6903,VALID,95,VALID,0.645148,
1999-12-04, 03:34:00,VALID,0,VALID,99.6175,VALID,-0.0169808,VALID,18.6866,VALID,90,VALID,0.308239,
1999-12-04, 03:35:00,VALID,0,VALID,99.634,VALID,-0.0169808,VALID,18.6806,VALID,82,VALID,0.380409,
1999-12-04, 03:36:00,VALID,0,VALID,99.6862,VALID,-0.0339617,VALID,18.6734,VALID,49,VALID,0.183277,
1999-12-04, 03:37:00,VALID,0,VALID,99.7065,VALID,-0.0169808,VALID,18.6836,VALID,51,VALID,0.0820313,
1999-12-04, 03:38:00,VALID,0,VALID,99.7447,VALID,0,VALID,18.6833,VALID,78,VALID,0.333116,
1999-12-04, 03:39:00,VALID,0,VALID,99.7358,VALID,-0.0169808,VALID,18.6836,VALID,96,VALID,0.359581,
1999-12-04, 03:40:00,VALID,0,VALID,99.737,VALID,-0.0169808,VALID,18.6734,VALID,95,VALID,0.316866,
1999-12-04, 03:41:00,VALID,0,VALID,99.7701,VALID,0,VALID,18.6702,VALID,95,VALID,0.0815972,
1999-12-04, 03:42:00,VALID,0,VALID,99.7777,VALID,0,VALID,18.6737,VALID,95,VALID,0,
1999-12-04, 03:43:00,VALID,0,VALID,99.8032,VALID,0,VALID,18.6704,VALID,96,VALID,0.201322,
1999-12-04, 03:44:00,VALID,0,VALID,99.8095,VALID,0,VALID,18.6573,VALID,102,VALID,0.11466,
1999-12-04, 03:45:00,VALID,0,VALID,99.8133,VALID,0,VALID,18.6446,VALID,102,VALID,0.0840872,
1999-12-04, 03:46:00,VALID,0,VALID,99.8171,VALID,0,VALID,18.6383,VALID,102,VALID,0.291266,
1999-12-04, 03:47:00,VALID,0,VALID,99.8235,VALID,0,VALID,18.6381,VALID,102,VALID,0.111909,
1999-12-04, 03:48:00,VALID,0,VALID,99.8426,VALID,0.0169808,VALID,18.6249,VALID,102,VALID,0,
1999-12-04, 03:49:00,VALID,0,VALID,99.8426,VALID,0,VALID,18.6222,VALID,102,VALID,0,
1999-12-04, 03:50:01,VALID,0,VALID,99.8667,VALID,0,VALID,18.6088,VALID,102,VALID,0,
1999-12-04, 03:51:00,VALID,0,VALID,99.8642,VALID,0,VALID,18.5991,VALID,102,VALID,0,
1999-12-04, 03:52:00,VALID,0,VALID,99.8706,VALID,0.0339617,VALID,18.5928,VALID,102,VALID,0,
1999-12-04, 03:53:00,VALID,0,VALID,99.8718,VALID,0,VALID,18.573,VALID,102,VALID,0,
1999-12-04, 03:54:00,VALID,0,VALID,99.8934,VALID,-0.0169808,VALID,18.5861,VALID,102,VALID,0,
1999-12-04, 03:55:00,VALID,0,VALID,99.9214,VALID,0,VALID,18.6032,VALID,102,VALID,0,
1999-12-04, 03:56:00,VALID,0,VALID,99.9252,VALID,0,VALID,18.5898,VALID,102,VALID,0,
1999-12-04, 03:57:00,VALID,0,VALID,99.9392,VALID,0,VALID,18.5834,VALID,102,VALID,0,
1999-12-04, 03:58:00,VALID,0,VALID,99.9405,VALID,0.0169808,VALID,18.5831,VALID,102,VALID,0,
1999-12-04, 03:59:00,VALID,0,VALID,99.9647,VALID,0,VALID,18.5831,VALID,96,VALID,0,
1999-12-04, 04:00:00,VALID,0,VALID,99.9812,VALID,0,VALID,18.5866,VALID,96,VALID,0,
1999-12-04, 04:01:01,VALID,0,VALID,99.9967,VALID,0.0169808,VALID,18.5765,VALID,99,VALID,0,
1999-12-04, 04:02:00,VALID,0,VALID,99.9964,VALID,0,VALID,18.573,VALID,98,VALID,0,
1999-12-04, 04:03:00,VALID,0,VALID,100,VALID,0.0339617,VALID,18.5762,VALID,98,VALID,0,
1999-12-04, 04:04:00,VALID,0,VALID,100,VALID,0.0169808,VALID,18.576,VALID,100,VALID,0,
1999-12-04, 04:05:00,VALID,0,VALID,100,VALID,0,VALID,18.5725,VALID,98,VALID,0,
1999-12-04, 04:06:00,VALID,0,VALID,100,VALID,0.0169808,VALID,18.5765,VALID,96,VALID,0,
1999-12-04, 04:07:00,VALID,0,VALID,100,VALID,0,VALID,18.5822,VALID,92,VALID,0,
1999-12-04, 04:08:00,VALID,0,VALID,100,VALID,0.0169808,VALID,18.5921,VALID,90,VALID,0,
1999-12-04, 04:09:00,VALID,0,VALID,100,VALID,0.0169808,VALID,18.6025,VALID,98,VALID,0,
1999-12-04, 04:10:00,VALID,0,VALID,100,VALID,0,VALID,18.609,VALID,101,VALID,0,
1999-12-04, 04:11:00,VALID,0,VALID,100,VALID,0,VALID,18.6122,VALID,100,VALID,0,